Syracuse, NY

7:43 PM EDT on October 17, 2019 (GMT -0400)
Syracuse Hancock International

Weather History for KSYR - June, 2019

Change the Weather History Date:

Wednesday, June 12, 2019

  Actual Average Record
Temperature  
Mean Temperature 63 °F 66 °F  
Max Temperature 77 °F 77 °F 94 °F (1949)
Min Temperature 48 °F 55 °F 39 °F (1906)
Degree Days  
Heating Degree Days 2 2  
Month to date heating degree days 34 38  
Since 1 June heating degree days 34 38  
Since 1 July heating degree days 6758 6628  
Cooling Degree Days 0 3  
Month to date cooling degree days 9 30  
Year to date cooling degree days 22 60  
Since 1 June cooling degree days 9 30  
Growing Degree Days 12 (Base 50)    
Moisture  
Dew Point 45 °F    
Average Humidity 60    
Maximum Humidity 86    
Minimum Humidity 33    
Precipitation  
Precipitation 0.00 in 0.11 in 2.35 in (1903)
Month to date precipitation 2.24 1.31  
Year to date precipitation 19.89 15.24  
Snow  
Snow 0.00 in 0.00 in 0.00 in (2002)
Month to date snowfall 0.0 0.0  
Since 1 June snowfall 0.0 0.0  
Since 1 July snowfall 115.0 123.8  
Snow Depth 0.00 in    
Sea Level Pressure  
Sea Level Pressure 30.08 in    
Wind  
Wind Speed 6 mph (SE)    
Max Wind Speed 17 mph    
Max Gust Speed 21 mph    
Visibility 10 miles    
Events      
T = Trace of Precipitation, MM = Missing Value Source: NWS Daily Summary

Daily Weather History Graph

Daily Weather History Graph

Search for Another Location

Airport or City:

Astronomy

Jun. 12, 2019 Rise Set
Actual Time 5:24 AM EDT 8:44 PM EDT
Civil Twilight 4:49 AM EDT 9:19 PM EDT
Nautical Twilight 4:03 AM EDT 10:05 PM EDT
Astronomical Twilight 3:06 AM EDT 11:02 PM EDT
Moon 3:40 PM EDT (6/12) 2:47 AM EDT (6/12)
Length of Visible Light 16h 30m
Length of Day
15h 19m
Waxing Gibbous, 76% of the Moon is Illuminated
Jun 12
Waxing Gibbous
Jun 17
Full
Jun 25
Last Quarter
Jul 2
New
Jul 9
First Quarter

Hourly Weather History & Observations

Time (EDT) Temp. Dew Point Humidity Pressure Visibility Wind Dir Wind Speed Gust Speed Precip Events Conditions
12:54 AM 53.1 °F 46.0 °F 77% 30.12 in 10.0 mi Calm Calm - N/A   Clear
1:54 AM 51.1 °F 46.0 °F 83% 30.12 in 10.0 mi Calm Calm - N/A   Clear
2:54 AM 50.0 °F 46.0 °F 86% 30.14 in 10.0 mi Calm Calm - N/A   Clear
3:54 AM 50.0 °F 46.0 °F 86% 30.15 in 10.0 mi Calm Calm - N/A   Clear
4:54 AM 48.9 °F 45.0 °F 86% 30.16 in 10.0 mi SE 3.5 mph - N/A   Partly Cloudy
5:54 AM 48.9 °F 44.1 °F 83% 30.17 in 10.0 mi Calm Calm - N/A   Partly Cloudy
6:54 AM 52.0 °F 46.9 °F 83% 30.17 in 10.0 mi ESE 4.6 mph - N/A   Partly Cloudy
7:54 AM 57.0 °F 48.0 °F 72% 30.17 in 10.0 mi ESE 4.6 mph - N/A   Partly Cloudy
8:54 AM 62.1 °F 48.0 °F 60% 30.18 in 10.0 mi Calm Calm - N/A   Partly Cloudy
9:54 AM 66.0 °F 46.0 °F 48% 30.17 in 10.0 mi SE 4.6 mph - N/A   Scattered Clouds
10:54 AM 69.1 °F 45.0 °F 42% 30.15 in 10.0 mi Variable 3.5 mph - N/A   Scattered Clouds
11:54 AM 72.0 °F 43.0 °F 35% 30.13 in 10.0 mi SSE 9.2 mph - N/A   Mostly Cloudy
12:54 PM 75.0 °F 45.0 °F 34% 30.10 in 10.0 mi SSE 5.8 mph - N/A   Mostly Cloudy
1:54 PM 75.0 °F 45.0 °F 34% 30.08 in 10.0 mi SE 6.9 mph - N/A   Mostly Cloudy
2:54 PM 77.0 °F 46.9 °F 34% 30.05 in 10.0 mi South 12.7 mph - N/A   Overcast
3:54 PM 75.9 °F 44.1 °F 32% 30.03 in 10.0 mi South 11.5 mph - N/A   Mostly Cloudy
4:54 PM 75.9 °F 44.1 °F 32% 30.01 in 10.0 mi SE 11.5 mph - N/A   Mostly Cloudy
5:54 PM 75.9 °F 44.1 °F 32% 30.00 in 10.0 mi South 11.5 mph - N/A   Overcast
6:54 PM 73.9 °F 43.0 °F 33% 30.00 in 10.0 mi SSE 10.4 mph - N/A   Overcast
7:54 PM 72.0 °F 45.0 °F 38% 29.99 in 10.0 mi SSE 8.1 mph - N/A   Overcast
8:54 PM 70.0 °F 43.0 °F 38% 29.99 in 10.0 mi SSE 9.2 mph - N/A   Overcast
9:54 PM 66.9 °F 45.0 °F 45% 29.99 in 10.0 mi SE 6.9 mph - N/A   Overcast
10:54 PM 66.0 °F 46.0 °F 48% 29.99 in 10.0 mi SE 6.9 mph - N/A   Overcast
11:54 PM 64.9 °F 46.9 °F 52% 29.97 in 10.0 mi SE 8.1 mph - N/A   Overcast